EW7678 Weather Reports


Display with metric or nautical units.
time (UTC)temp
F
wind
direction
speed
MPH
gust
MPH
rain 1hr
in
rain 24hr
in
rain mn
in
humidity
%
barometer
mb
20260831221538 78 99 0.0 4.0 0.00 0.00 0.00 46 1011.5
20260831220030 78 221 1.0 6.0 0.00 0.00 0.00 47 1011.7
20260831214532 78 248 0.0 4.0 0.00 0.00 0.00 48 1011.8
20260831213036 77 68 1.0 6.0 0.00 0.00 0.00 48 1012.1
20260831211523 77 200 0.0 3.0 0.00 0.00 0.00 47 1012.3
20260831210018 76 306 1.0 3.0 0.00 0.00 0.00 51 1012.6
20260831204516 75 222 0.0 5.0 0.00 0.00 0.00 50 1012.8
20260831203018 75 115 1.0 5.0 0.00 0.00 0.00 51 1013.0
20260831201517 75 157 0.0 3.0 0.00 0.00 0.00 55 1013.2
20260831200007 74 303 0.0 3.0 0.00 0.00 0.00 55 1013.4
20260831194504 73 118 0.0 3.0 0.00 0.00 0.00 58 1013.7
20260831193001 72 122 0.0 2.0 0.00 0.00 0.00 59 1014.0
20260831191559 72 136 0.0 2.0 0.00 0.00 0.00 61 1014.2
20260831190127 72 113 0.0 2.0 0.00 0.00 0.00 62 1014.6
20260831184551 70 337 0.0 2.0 0.00 0.00 0.00 63 1014.7
20260831183048 69 135 1.0 3.0 0.00 0.00 0.00 66 1015.0
20260831181554 68 120 0.0 2.0 0.00 0.00 0.00 69 1015.1
20260831180042 67 261 1.0 4.0 0.00 0.00 0.00 69 1015.3
20260831174549 67 224 0.0 1.0 0.00 0.00 0.00 72 1015.3
20260831173037 66 68 0.0 2.0 0.00 0.00 0.00 71 1015.4
20260831171534 65 224 0.0 3.0 0.00 0.00 0.00 76 1015.4
20260831170036 64 352 0.0 2.0 0.00 0.00 0.00 80 1015.6
20260831164525 63 211 0.0 2.0 0.00 0.00 0.00 85 1015.9
20260831163023 62 238 0.0 1.0 0.00 0.00 0.00 89 1016.1
20260831161519 61 289 0.0 2.0 0.00 0.00 0.00 92 1015.9
20260831160034 59 265 0.0 1.0 0.00 0.00 0.00 95 1016.1
20260831154513 58 284 0.0 1.0 0.00 0.00 0.00 97 1016.2
20260831153020 57 68 0.0 1.0 0.00 0.00 0.00 98 1016.2
20260831151507 56 74 0.0 1.0 0.00 0.00 0.00 98 1016.0
20260831150005 55 122 0.0 0.0 0.00 0.00 0.00 98 1016.0
20260831144503 53 122 0.0 0.0 0.00 0.00 0.00 98 1016.1
20260831143001 52 122 0.0 0.0 0.00 0.00 0.00 98 1016.0
20260831141559 52 123 0.0 0.0 0.00 0.00 0.00 98 1016.0
20260831140055 51 122 0.0 0.0 0.00 0.00 0.00 97 1016.0
20260831134603 51 123 0.0 0.0 0.00 0.00 0.00 97 1015.8
20260831133052 50 122 0.0 0.0 0.00 0.00 0.00 97 1015.9
20260831131553 50 123 0.0 0.0 0.00 0.00 0.00 97 1016.1
20260831130057 51 122 0.0 0.0 0.00 0.00 0.00 97 1016.1
20260831124554 51 122 0.0 0.0 0.00 0.00 0.00 97 1016.2
20260831123050 51 122 0.0 0.0 0.00 0.00 0.00 97 1016.2
20260831121548 51 122 0.0 0.0 0.00 0.00 0.00 97 1016.3
20260831120121 52 122 0.0 0.0 0.00 0.00 0.00 97 1016.3
20260831114540 52 122 0.0 0.0 0.00 0.00 0.00 97 1016.4
20260831113038 53 122 0.0 0.0 0.00 0.00 0.00 97 1016.3
20260831111546 53 123 0.0 0.0 0.00 0.00 0.00 97 1016.3
20260831110036 54 122 0.0 0.0 0.00 0.00 0.00 97 1016.2
20260831104538 55 122 0.0 0.0 0.00 0.00 0.00 97 1016.1
20260831103032 55 122 0.0 0.0 0.00 0.00 0.00 97 1016.2
20260831101535 55 122 0.0 0.0 0.00 0.00 0.00 97 1016.1
20260831100029 55 122 0.0 0.0 0.00 0.00 0.00 97 1016.2
20260831094528 55 122 0.0 0.0 0.00 0.00 0.00 97 1016.3
20260831093025 55 122 0.0 0.0 0.00 0.00 0.00 97 1016.3
20260831091527 55 122 0.0 0.0 0.00 0.00 0.00 97 1016.4
20260831090023 55 122 0.0 0.0 0.00 0.00 0.00 97 1016.5
20260831084523 55 122 0.0 0.0 0.00 0.00 0.00 97 1016.6
20260831083025 55 122 0.0 0.0 0.00 0.00 0.00 97 1016.6
20260831081533 55 122 0.0 0.0 0.00 0.00 0.00 97 1016.7
20260831080019 55 122 0.0 0.0 0.00 0.00 0.00 97 1016.5
20260831074518 55 123 0.0 0.0 0.00 0.00 0.00 96 1016.6
20260831073022 56 123 0.0 0.0 0.00 0.00 0.00 96 1016.7
20260831071517 56 122 0.0 0.0 0.00 0.00 0.00 96 1016.8
20260831070021 56 123 0.0 0.0 0.00 0.00 0.00 96 1016.8
20260831064513 56 122 0.0 0.0 0.00 0.00 0.00 96 1016.7
20260831063013 56 123 0.0 0.0 0.00 0.00 0.00 96 1016.8
20260831061513 56 122 0.0 0.0 0.00 0.00 0.00 96 1016.8
20260831060015 56 122 0.0 0.0 0.00 0.00 0.00 96 1016.7
20260831054510 56 122 0.0 0.0 0.00 0.00 0.00 96 1016.8
20260831053010 56 122 0.0 0.0 0.00 0.00 0.00 96 1016.7
20260831051517 56 122 0.0 0.0 0.00 0.00 0.00 96 1016.8
20260831050008 56 122 0.0 0.0 0.00 0.00 0.00 96 1016.7
20260831044507 57 122 0.0 0.0 0.00 0.00 0.00 95 1016.6
20260831043007 57 122 0.0 0.0 0.00 0.00 0.00 95 1016.5
20260831041506 57 122 0.0 0.0 0.00 0.00 0.00 95 1016.6
20260831040013 57 122 0.0 0.0 0.00 0.00 0.00 95 1016.5
20260831034504 58 122 0.0 0.0 0.00 0.00 0.00 95 1016.4
20260831033004 58 122 0.0 0.0 0.00 0.00 0.00 95 1016.4
20260831031501 58 122 0.0 0.0 0.00 0.00 0.00 95 1016.3
20260831030001 58 122 0.0 0.0 0.00 0.00 0.00 94 1016.2
20260831024616 58 122 0.0 0.0 0.00 0.00 0.00 94 1016.0
20260831023100 59 122 0.0 0.0 0.00 0.00 0.00 93 1016.0
20260831021604 59 122 0.0 0.0 0.00 0.00 0.00 93 1016.0
20260831020059 60 123 0.0 0.0 0.00 0.00 0.00 92 1016.2
20260831014558 60 122 0.0 0.0 0.00 0.00 0.00 91 1016.3
20260831013059 61 122 0.0 0.0 0.00 0.00 0.00 90 1016.2
20260831011558 61 123 0.0 0.0 0.00 0.00 0.00 87 1016.1
20260831010128 61 122 0.0 0.0 0.00 0.00 0.00 88 1016.2
20260831004555 61 123 0.0 1.0 0.00 0.00 0.00 87 1016.1
20260831003054 61 151 0.0 1.0 0.00 0.00 0.00 89 1016.1
20260831001604 61 153 0.0 0.0 0.00 0.00 0.00 90 1016.0
20260831000053 60 154 0.0 0.0 0.00 0.00 0.00 92 1016.1
20260830234552 60 154 0.0 0.0 0.00 0.00 0.00 91 1016.1
20260830233052 60 154 0.0 0.0 0.00 0.00 0.00 92 1016.2
20260830231553 60 154 0.0 0.0 0.00 0.00 0.00 90 1016.2
20260830230054 61 154 0.0 0.0 0.00 0.00 0.00 90 1016.1
20260830224558 61 154 0.0 0.0 0.00 0.00 0.00 89 1016.2
20260830223049 61 154 0.0 0.0 0.00 0.00 0.00 90 1016.1